Weather History for KSJT - July, 2014

Change the Weather History Date:

Friday, July 25, 2014

  Actual Average Record
Temperature  
Mean Temperature 85 °F 84 °F  
Max Temperature 100 °F 96 °F 106 °F (1944)
Min Temperature 69 °F 72 °F 60 °F (1989)
Degree Days  
Heating Degree Days 0 0  
Month to date heating degree days 0 0  
Since 1 June heating degree days 0 0  
Since 1 July heating degree days 0 0  
Cooling Degree Days 20 19  
Month to date cooling degree days 447 450  
Year to date cooling degree days 1533 1374  
Since 1 June cooling degree days 931 914  
Growing Degree Days 34 (Base 50)    
Moisture  
Dew Point 62 °F    
Average Humidity 51    
Maximum Humidity 78    
Minimum Humidity 24    
Precipitation  
Precipitation 0.00 in 0.03 in 1.87 in (1936)
Month to date precipitation 0.77 0.97  
Year to date precipitation 11.33 11.58  
Sea Level Pressure  
Sea Level Pressure 29.94 in    
Wind  
Wind Speed 7 mph (South)    
Max Wind Speed 15 mph    
Max Gust Speed 20 mph    
Visibility 10 miles    
Events      
T = Trace of Precipitation, MM = Missing Value Source: NWS Daily Summary

Daily Weather History Graph

Daily Weather History Graph

Search for Another Location

Airport or City:

Trip Planner

Search our weather history database for the weather conditions in past years. The results will help you decide how hot, cold, wet, or windy it might be!

Date:

Astronomy

Jul. 25, 2014 Rise Set
Actual Time 6:54 AM CDT 8:42 PM CDT
Civil Twilight 6:27 AM CDT 9:09 PM CDT
Nautical Twilight 5:54 AM CDT 9:41 PM CDT
Astronomical Twilight 5:20 AM CDT 10:15 PM CDT
Moon 5:52 AM CDT (7/25) 7:44 PM CDT (7/25)
Length of Visible Light 14h 42m
Length of Day
13h 48m
Waning Crescent, 1% of the Moon is Illuminated
Jul 25
Waning Crescent
Jul 26
New
Aug 3
First Quarter
Aug 10
Full
Aug 17
Last Quarter

Hourly Weather History & Observations

Time (CDT) Temp. Heat Index Dew Point Humidity Pressure Visibility Wind Dir Wind Speed Gust Speed Precip Events Conditions
12:51 AM 80.1 °F 81.9 °F 64.9 °F 60% 29.98 in 10.0 mi South 6.9 mph - N/A   Clear
1:51 AM 77.0 °F - 64.0 °F 64% 29.98 in 10.0 mi SSW 3.5 mph - N/A   Clear
2:51 AM 73.9 °F - 63.0 °F 68% 29.98 in 10.0 mi SW 4.6 mph - N/A   Clear
4:51 AM 70.0 °F - 63.0 °F 78% 29.98 in 10.0 mi South 4.6 mph - N/A   Clear
5:51 AM 71.1 °F - 63.0 °F 75% 29.98 in 10.0 mi South 8.1 mph - N/A   Clear
7:51 AM 73.0 °F - 64.9 °F 76% 30.00 in 10.0 mi SSW 5.8 mph - N/A   Clear
8:51 AM 79.0 °F - 66.9 °F 66% 30.00 in 10.0 mi South 6.9 mph - N/A   Clear
9:51 AM 82.9 °F 85.4 °F 66.9 °F 58% 30.00 in 10.0 mi SSE 8.1 mph - N/A   Clear
10:51 AM 88.0 °F 89.6 °F 64.9 °F 46% 30.00 in 10.0 mi South 9.2 mph - N/A   Clear
11:51 AM 90.0 °F 90.6 °F 63.0 °F 40% 29.99 in 10.0 mi SSW 9.2 mph - N/A   Clear
12:51 PM 93.0 °F 94.2 °F 63.0 °F 37% 29.97 in 10.0 mi SSW 13.8 mph 18.4 mph N/A   Clear
1:51 PM 93.9 °F 94.8 °F 62.1 °F 35% 29.94 in 10.0 mi Variable 6.9 mph - N/A   Clear
2:51 PM 96.1 °F 96.0 °F 60.1 °F 30% 29.92 in 10.0 mi SW 5.8 mph - N/A   Clear
3:51 PM 96.1 °F 95.2 °F 57.9 °F 28% 29.90 in 10.0 mi Calm Calm - N/A   Clear
4:51 PM 98.1 °F 97.2 °F 57.9 °F 26% 29.88 in 10.0 mi South 9.2 mph - N/A   Mostly Cloudy
5:51 PM 98.1 °F 97.2 °F 57.9 °F 26% 29.85 in 10.0 mi SSE 11.5 mph 19.6 mph N/A   Scattered Clouds
6:51 PM 98.1 °F 96.4 °F 55.9 °F 24% 29.85 in 10.0 mi Calm Calm - N/A   Clear
7:51 PM 97.0 °F 95.7 °F 57.0 °F 26% 29.85 in 10.0 mi SE 6.9 mph - N/A   Overcast
8:51 PM 91.9 °F 90.6 °F 57.0 °F 31% 29.86 in 10.0 mi ESE 5.8 mph - N/A   Clear
9:51 PM 89.1 °F 88.2 °F 59.0 °F 36% 29.88 in 10.0 mi SE 10.4 mph - N/A   Partly Cloudy
10:51 PM 88.0 °F 87.9 °F 61.0 °F 40% 29.90 in 10.0 mi SSE 10.4 mph - N/A   Clear
11:51 PM 86.0 °F 86.1 °F 61.0 °F 43% 29.91 in 10.0 mi SSE 9.2 mph - N/A   Clear